EWG7RD LPMA-EDDK

Flight info

Callsign EWG7RD
Flight time N/A
Altitude 34000
Route MARCU DCT VERAM DCT ASMAR DCT DEMOS DCT LOTEE DCT AZFIC UN741 NTS DCT GONEK DCT TABOV UN858 OQQAL DCT RANUX DCT VALEK DCT LUTAX UM163 DIK N853 ARCKY T853 IBESA T860 ERUKI ERUKI1F
Aircraft A320/M-SDE3FGHIRWY/LB1

Departure

Time N/A
Airport Cristiano Ronaldo International Airport (LPMA)

Arrival

Time 2026-04-30 19:00
Airport Cologne Bonn Airport (EDDK)
Time Latitude Longitude Altitude Speed Heading
2026-04-30 14:48 32.69465 -16.77516 169 ft 0 kts 138°
2026-04-30 15:11 32.69475 -16.77527 169 ft 4 kts 135°
2026-04-30 15:12 32.69498 -16.77598 169 ft 1 kts 46°
2026-04-30 15:13 32.69496 -16.77601 169 ft 0 kts 46°
2026-04-30 15:14 32.69505 -16.77589 169 ft 2 kts 46°
2026-04-30 15:16 32.69661 -16.77396 169 ft 17 kts 46°
2026-04-30 15:17 32.69996 -16.77174 197 ft 19 kts 10°
2026-04-30 15:18 32.70386 -16.76752 188 ft 7 kts 169°
2026-04-30 15:19 32.70343 -16.76797 188 ft 0 kts 225°
2026-04-30 17:39 46.49563 -3.20525 36100 ft 444 kts 46°
2026-04-30 17:41 46.63961 -2.91857 36098 ft 441 kts 60°
2026-04-30 17:42 46.67057 -2.84140 36100 ft 441 kts 60°
2026-04-30 17:43 46.74761 -2.64783 36106 ft 442 kts 60°
2026-04-30 17:44 46.83938 -2.41551 36110 ft 441 kts 61°
2026-04-30 17:47 46.98289 -2.07190 36115 ft 440 kts 59°
2026-04-30 17:48 47.08896 -1.80105 36118 ft 438 kts 62°
2026-04-30 17:50 47.21283 -1.49422 36113 ft 438 kts 57°
2026-04-30 17:52 47.31400 -1.27147 36109 ft 437 kts 58°
2026-04-30 17:54 47.46311 -0.93381 36104 ft 437 kts 58°
2026-04-30 17:56 47.59469 -0.63292 36087 ft 436 kts 59°
2026-04-30 17:58 47.69277 -0.40651 36090 ft 436 kts 59°
2026-04-30 18:00 47.82304 -0.10247 36102 ft 437 kts 59°
2026-04-30 18:01 47.90421 0.08863 36117 ft 436 kts 58°
2026-04-30 18:02 48.00068 0.31741 36110 ft 434 kts 59°
2026-04-30 18:04 48.09621 0.54611 36117 ft 432 kts 59°
2026-04-30 18:06 48.23811 0.83529 36117 ft 432 kts 54°
2026-04-30 18:08 48.36457 1.08593 36115 ft 430 kts 54°
2026-04-30 18:10 48.50804 1.37309 36115 ft 429 kts 55°
2026-04-30 18:11 48.63255 1.62575 36121 ft 429 kts 58°
2026-04-30 18:12 48.66831 1.74820 36114 ft 425 kts 71°
2026-04-30 18:13 48.68850 1.83155 36122 ft 425 kts 71°
2026-04-30 18:14 48.73903 2.04165 36117 ft 424 kts 71°
2026-04-30 18:15 48.78937 2.29716 36147 ft 422 kts 77°
2026-04-30 18:16 48.81949 2.46922 36149 ft 422 kts 76°
2026-04-30 18:17 48.83481 2.55451 36150 ft 422 kts 76°
2026-04-30 18:18 48.85754 2.68336 36151 ft 421 kts 76°
2026-04-30 18:18 48.87267 2.76921 36146 ft 421 kts 76°
2026-04-30 18:19 48.88756 2.85446 36146 ft 420 kts 76°
2026-04-30 18:19 48.90242 2.94043 36151 ft 420 kts 76°
2026-04-30 18:20 48.91724 3.02617 36150 ft 419 kts 76°
2026-04-30 18:20 48.93200 3.11187 36151 ft 419 kts 76°
2026-04-30 18:21 48.94654 3.19703 36154 ft 419 kts 76°
2026-04-30 18:21 48.96115 3.28276 36156 ft 418 kts 76°
2026-04-30 18:22 48.97566 3.36848 36155 ft 418 kts 77°
2026-04-30 18:22 48.99722 3.49662 36164 ft 418 kts 77°
2026-04-30 18:23 49.01160 3.58239 36167 ft 418 kts 77°
2026-04-30 18:23 49.02591 3.66825 36171 ft 418 kts 77°
2026-04-30 18:24 49.04716 3.79644 36175 ft 417 kts 77°
2026-04-30 18:25 49.06121 3.88231 36182 ft 417 kts 77°
2026-04-30 18:25 49.08220 4.01114 36179 ft 417 kts 77°
2026-04-30 18:26 49.10313 4.13943 36190 ft 417 kts 77°
2026-04-30 18:27 49.12388 4.26830 36190 ft 416 kts 77°
2026-04-30 18:28 49.14792 4.39557 36187 ft 416 kts 68°
2026-04-30 18:28 49.18117 4.51750 36181 ft 416 kts 68°
2026-04-30 18:29 49.22540 4.68107 36183 ft 416 kts 68°
2026-04-30 18:30 49.26919 4.84464 36194 ft 417 kts 68°
2026-04-30 18:31 49.30194 4.96777 36196 ft 416 kts 68°
2026-04-30 18:32 49.33452 5.09075 36198 ft 415 kts 68°
2026-04-30 18:33 49.36701 5.21378 36202 ft 415 kts 68°
2026-04-30 18:33 49.39762 5.28696 36203 ft 415 kts 41°
2026-04-30 18:33 49.42136 5.31226 36198 ft 416 kts 33°
2026-04-30 18:34 49.49591 5.38139 36205 ft 417 kts 32°
2026-04-30 18:35 49.53728 5.41959 36210 ft 417 kts 33°
2026-04-30 18:35 49.58693 5.46585 36215 ft 417 kts 33°
2026-04-30 18:36 49.66145 5.53574 35880 ft 418 kts 33°
2026-04-30 18:36 49.71033 5.58152 35058 ft 410 kts 33°
2026-04-30 18:37 49.73462 5.60435 34642 ft 407 kts 33°
2026-04-30 18:37 49.75870 5.62698 34232 ft 404 kts 33°
2026-04-30 18:37 49.78262 5.64952 33801 ft 401 kts 33°
2026-04-30 18:37 49.81393 5.67915 33224 ft 397 kts 33°
2026-04-30 18:38 49.83740 5.70136 32790 ft 394 kts 33°
2026-04-30 18:38 49.85315 5.71628 32501 ft 392 kts 33°
2026-04-30 18:38 49.87604 5.73802 32094 ft 389 kts 33°
2026-04-30 18:38 49.89894 5.75975 31663 ft 386 kts 33°
2026-04-30 18:39 49.92177 5.78135 31244 ft 383 kts 33°
2026-04-30 18:39 49.94444 5.80283 30813 ft 380 kts 33°
2026-04-30 18:39 49.96690 5.82420 30390 ft 377 kts 34°
2026-04-30 18:39 49.98914 5.84543 29969 ft 374 kts 34°
2026-04-30 18:40 50.01123 5.86653 29528 ft 371 kts 34°
2026-04-30 18:40 50.03319 5.88747 29088 ft 369 kts 33°
2026-04-30 18:40 50.05502 5.90827 28651 ft 367 kts 33°
2026-04-30 18:40 50.07670 5.92896 28222 ft 365 kts 33°
2026-04-30 18:41 50.09798 5.94930 27783 ft 363 kts 33°
2026-04-30 18:41 50.11941 5.96982 27354 ft 361 kts 33°
2026-04-30 18:41 50.14069 5.99027 26939 ft 358 kts 33°
2026-04-30 18:41 50.16183 6.01062 26516 ft 356 kts 33°
2026-04-30 18:42 50.18288 6.03088 25898 ft 354 kts 33°
2026-04-30 18:42 50.22442 6.07102 24648 ft 348 kts 33°
2026-04-30 18:42 50.24491 6.09083 23998 ft 345 kts 33°
2026-04-30 18:45 50.44143 6.28279 18739 ft 314 kts 36°
2026-04-30 18:45 50.45956 6.30171 18378 ft 312 kts 36°
2026-04-30 18:45 50.47757 6.32053 18022 ft 310 kts 36°
2026-04-30 18:46 50.49543 6.33921 17655 ft 307 kts 36°
2026-04-30 18:46 50.51316 6.35774 17162 ft 306 kts 36°
2026-04-30 18:46 50.53081 6.37613 16680 ft 303 kts 36°
2026-04-30 18:46 50.54837 6.39438 16198 ft 302 kts 36°
2026-04-30 18:47 50.56560 6.41229 15734 ft 300 kts 36°
2026-04-30 18:47 50.58293 6.43034 15268 ft 298 kts 37°
2026-04-30 18:47 50.60021 6.44834 14805 ft 296 kts 37°
2026-04-30 18:47 50.61723 6.46613 14185 ft 292 kts 37°
2026-04-30 18:48 50.63416 6.48385 13549 ft 292 kts 37°
2026-04-30 18:48 50.65108 6.50151 13034 ft 290 kts 37°
2026-04-30 18:48 50.66782 6.51900 12419 ft 288 kts 37°
2026-04-30 18:48 50.68441 6.53632 11810 ft 285 kts 37°
2026-04-30 18:49 50.70090 6.55355 11192 ft 283 kts 37°
2026-04-30 18:49 50.71733 6.57073 10658 ft 283 kts 38°
2026-04-30 18:49 50.73343 6.58756 10211 ft 280 kts 38°
2026-04-30 18:49 50.74962 6.60450 9716 ft 278 kts 38°
2026-04-30 18:50 50.76574 6.62149 9245 ft 279 kts 38°
2026-04-30 18:50 50.78183 6.63851 8852 ft 278 kts 38°
2026-04-30 18:50 50.79781 6.65539 8469 ft 277 kts 38°
2026-04-30 18:50 50.81381 6.67223 8097 ft 274 kts 38°
2026-04-30 18:51 50.82970 6.68889 7710 ft 274 kts 38°
2026-04-30 18:51 50.84552 6.70551 7302 ft 273 kts 39°
2026-04-30 18:51 50.86131 6.72216 6887 ft 272 kts 39°
2026-04-30 18:51 50.87681 6.73856 6492 ft 271 kts 39°
2026-04-30 18:52 50.89232 6.75497 6075 ft 269 kts 39°
2026-04-30 18:52 50.90788 6.77146 5671 ft 268 kts 39°
2026-04-30 18:52 50.92333 6.78774 5275 ft 268 kts 39°
2026-04-30 18:52 50.93864 6.80389 5033 ft 260 kts 39°
2026-04-30 18:53 50.95341 6.81951 4892 ft 249 kts 39°
2026-04-30 18:53 50.96736 6.83431 4780 ft 232 kts 39°
2026-04-30 18:53 50.98033 6.84805 4619 ft 219 kts 40°
2026-04-30 18:53 50.99288 6.86143 4170 ft 217 kts 40°
2026-04-30 18:54 51.00538 6.87479 3729 ft 215 kts 40°
2026-04-30 18:54 51.01625 6.88969 3286 ft 204 kts 62°
2026-04-30 18:54 51.01994 6.91045 3025 ft 193 kts 95°
2026-04-30 18:54 51.01604 6.92981 3004 ft 181 kts 122°
2026-04-30 18:55 51.00739 6.94415 3010 ft 179 kts 134°
2026-04-30 18:55 50.98920 6.97067 2992 ft 177 kts 134°
2026-04-30 18:55 50.98023 6.98377 2857 ft 172 kts 134°
2026-04-30 18:56 50.96326 7.00855 2430 ft 162 kts 134°
2026-04-30 18:56 50.95522 7.02028 2229 ft 152 kts 135°
2026-04-30 18:56 50.94774 7.03117 2032 ft 145 kts 134°
2026-04-30 18:57 50.93311 7.05250 1664 ft 142 kts 135°
2026-04-30 18:57 50.92584 7.06308 1471 ft 143 kts 136°
2026-04-30 18:57 50.91846 7.07382 1281 ft 145 kts 136°
2026-04-30 18:58 50.90370 7.09539 845 ft 144 kts 136°
2026-04-30 18:58 50.89632 7.10617 695 ft 144 kts 135°
2026-04-30 18:58 50.88892 7.11684 529 ft 144 kts 136°
2026-04-30 18:59 50.87455 7.13772 240 ft 123 kts 139°
2026-04-30 19:00 50.86441 7.15217 282 ft 29 kts 148°
2026-04-30 19:00 50.86266 7.15320 290 ft 26 kts 170°
2026-04-30 19:00 50.86047 7.15257 293 ft 19 kts 253°
2026-04-30 19:01 50.86233 7.14862 282 ft 29 kts 317°
2026-04-30 19:01 50.86391 7.14635 273 ft 33 kts 318°
2026-04-30 19:02 50.86691 7.14195 259 ft 13 kts 308°
2026-04-30 19:02 50.86816 7.14080 255 ft 12 kts 321°
2026-04-30 19:03 50.86997 7.13816 244 ft 25 kts 318°
2026-04-30 19:03 50.87267 7.13424 234 ft 25 kts 317°
2026-04-30 19:04 50.87539 7.13032 233 ft 27 kts 317°
2026-04-30 19:04 50.87770 7.12699 232 ft 9 kts 318°
2026-04-30 19:05 50.87786 7.12676 232 ft 1 kts 318°
2026-04-30 19:05 50.87847 7.12587 234 ft 9 kts 304°
2026-04-30 19:06 50.87873 7.12464 232 ft 1 kts 288°
2026-04-30 19:06 50.87875 7.12454 234 ft 1 kts 288°
2026-04-30 19:06 50.87875 7.12453 232 ft 0 kts 288°